This demonstration page uses our WeatherBlox Daily Observations layout. Learn more.

Hourly Observations for August 16, 2017

Temp ( °F °C ) Dew Point ( °F °C ) Humidity (%) Winds ( mph kmh ) Pressure ( in mb ) Visibility ( mi km ) Precip ( " mm )
12:15 am 00:15 Cloudy 65 18.5 61 16.1 86 86 E 12 19 29.83 1010 10 16.09344 0 0
12:35 am 00:35 Cloudy 66 18.8 62 16.7 88 88 ESE 14 22 29.77 1008 10 16.09344 0 0
12:55 am 00:55 Cloudy 66 19 63 17 88 88 E 13 20 29.8 1009 10 16.09344 0 0
1:15 am 01:15 Cloudy with Heavy Rain 64 18 60 15.5 85 85 W 7 11 29.88 1012 5 8.04672 0.02 0.508
1:35 am 01:35 Cloudy with Heavy Thunderstorms 63 17.2 61 15.9 92 92 NNW 18 30 29.88 1012 3 4.828032 0.17 4.318
1:55 am 01:55 Cloudy with Heavy Thunderstorms 63 17.3 61 16.1 93 93 N 15 24 29.85 1011 2.5 4.02336 0.54 13.716
2:15 am 02:15 Cloudy with Light Thunderstorms 63 17.3 60 15.6 90 90 N 18 30 29.85 1011 7 11.265408 0.03 0.762
2:35 am 02:35 Cloudy with Nearby Thunderstorms 64 17.5 60 15.7 89 89 N 16 26 29.85 1011 10 16.09344 0.04 1.016
2:55 am 02:55 Cloudy with Thunderstorms 64 17.5 60 15.5 88 88 N 18 30 29.83 1010 10 16.09344 0.09 2.286
3:15 am 03:15 Cloudy with Thunderstorms 64 17.5 60 15.3 87 87 N 17 28 29.83 1010 7 11.265408 0.04 1.016
3:35 am 03:35 Cloudy with Rain 63 17.3 59 15 86 86 N 16 26 29.83 1010 10 16.09344 0.07 1.778
3:55 am 03:55 Cloudy with Rain 63 17.1 59 15 88 88 NNE 12 19 29.8 1009 7 11.265408 0.12 3.048
4:15 am 04:15 Cloudy with Rain 62 16.7 59 15.1 90 90 NE 17 28 29.74 1007 10 16.09344 0.06 1.524
4:35 am 04:35 Cloudy 62 16.6 59 15.2 92 92 ENE 13 20 29.74 1007 10 16.09344 0.11 2.794
4:55 am 04:55 Cloudy with Light Rain 62 16.7 60 15.3 92 92 ESE 8 13 29.77 1008 10 16.09344 0.12 3.048
5:15 am 05:15 Mostly Cloudy 62 16.7 60 15.5 93 93 ESE 6 9 29.74 1007 10 16.09344 0.01 0.254
5:35 am 05:35 Partly Cloudy 62 16.6 60 15.5 93 93 SE 6 9 29.74 1007 10 16.09344 0.01 0.254
5:55 am 05:55 Partly Cloudy with Light Rain 62 16.6 60 15.5 93 93 NW 6 9 29.77 1008 10 16.09344 0.01 0.254
6:15 am 06:15 Mostly Cloudy with Light Rain 62 16.5 60 15.5 94 94 NE 6 9 29.74 1007 10 16.09344 0 0
6:35 am 06:35 Cloudy with Light Drizzle 62 16.5 60 15.5 94 94 NW 10 17 29.74 1007 10 16.09344 0 0
6:55 am 06:55 Mostly Cloudy 62 16.5 60 15.5 94 94 NW 8 13 29.77 1008 10 16.09344 0 0
7:15 am 07:15 Partly Cloudy 61 16.2 59 15.2 94 94 WNW 14 22 29.77 1008 10 16.09344 0 0
7:35 am 07:35 Sunny 61 16.1 59 15 93 93 NW 10 17 29.8 1009 10 16.09344 0 0
7:55 am 07:55 Sunny 61 16.1 59 15 93 93 NW 10 17 29.8 1009 10 16.09344 0 0
8:15 am 08:15 Sunny 61 16.3 59 15.2 93 93 NW 9 15 29.83 1010 10 16.09344 0 0
8:35 am 08:35 Sunny 63 17.1 60 15.7 92 92 W 12 19 29.85 1011 10 16.09344 0 0
8:55 am 08:55 Sunny 64 17.6 60 15.8 89 89 WNW 12 19 29.85 1011 10 16.09344 0 0
9:15 am 09:15 Sunny 65 18.2 61 16 87 87 WNW 14 22 29.85 1011 10 16.09344 0 0
9:35 am 09:35 Sunny 66 19 61 16.2 84 84 NW 15 24 29.83 1010 10 16.09344 0 0
9:55 am 09:55 Sunny 68 20 60 15.8 77 77 NW 14 22 29.83 1010 10 16.09344 0 0
10:15 am 10:15 Partly Cloudy 69 20.7 61 16 75 75 WNW 15 24 29.83 1010 10 16.09344 0 0
10:35 am 10:35 Partly Cloudy 71 21.4 62 16.6 74 74 WNW 16 26 29.83 1010 10 16.09344 0 0
10:55 am 10:55 Partly Cloudy 71 21.6 61 16.2 71 71 NW 15 24 29.83 1010 10 16.09344 0 0
11:15 am 11:15 Partly Cloudy 71 21.8 61 16.3 71 71 NNW 18 30 29.83 1010 10 16.09344 0 0
11:35 am 11:35 Partly Cloudy 72 22.1 61 16 68 68 NW 18 30 29.83 1010 10 16.09344 0 0
11:55 am 11:55 Partly Cloudy 72 22 61 16 69 69 WNW 14 22 29.83 1010 10 16.09344 0 0
12:15 pm 12:15 Sunny 72 22.2 60 15.6 66 66 NW 14 22 29.83 1010 10 16.09344 0 0
12:35 pm 12:35 Partly Cloudy 73 22.8 60 15.6 64 64 NW 15 24 29.8 1009 10 16.09344 0 0
12:55 pm 12:55 Partly Cloudy 74 23.5 61 16.1 63 63 NNW 13 20 29.8 1009 10 16.09344 0 0
1:15 pm 13:15 Partly Cloudy 74 23.5 60 15.8 62 62 NNW 12 19 29.8 1009 10 16.09344 0 0
1:35 pm 13:35 Mostly Cloudy 76 24.4 62 16.8 63 63 NNW 8 13 29.8 1009 10 16.09344 0 0
1:55 pm 13:55 Mostly Cloudy 76 24.7 61 15.9 58 58 WNW 10 17 29.8 1009 10 16.09344 0 0
2:15 pm 14:15 Partly Cloudy 77 24.9 61 16 58 58 W 8 13 29.8 1009 10 16.09344 0 0
2:35 pm 14:35 Partly Cloudy 77 25.2 62 16.8 60 60 WNW 13 20 29.8 1009 10 16.09344 0 0
2:55 pm 14:55 Sunny 79 26 61 16.1 54 54 WNW 12 19 29.77 1008 10 16.09344 0 0
3:15 pm 15:15 Partly Cloudy 78 25.5 61 16.1 56 56 WNW 10 17 29.8 1009 10 16.09344 0 0
3:35 pm 15:35 Sunny 79 25.9 62 16.4 56 56 WNW 13 20 29.8 1009 10 16.09344 0 0
3:55 pm 15:55 Partly Cloudy 79 25.9 62 16.6 57 57 WNW 14 22 29.8 1009 10 16.09344 0 0
4:15 pm 16:15 Cloudy with Light Rain 72 22.3 61 16.2 69 69 NNW 21 33 29.83 1010 10 16.09344 0 0
4:35 pm 16:35 Mostly Cloudy 73 22.7 59 15.2 63 63 NNW 18 30 29.8 1009 10 16.09344 0 0
4:55 pm 16:55 Mostly Cloudy with Rain 71 21.7 61 15.9 70 70 N 9 15 29.85 1011 10 16.09344 0 0
5:15 pm 17:15 Mostly Cloudy 72 22 60 15.7 68 68 N 14 22 29.85 1011 10 16.09344 0 0
5:35 pm 17:35 Partly Cloudy 71 21.8 62 16.4 72 72 NNW 13 20 29.85 1011 10 16.09344 0 0
5:55 pm 17:55 Sunny 71 21.6 62 16.7 74 74 NNW 13 20 29.85 1011 10 16.09344 0 0
6:15 pm 18:15 Partly Cloudy 73 22.7 62 16.6 69 69 NNW 13 20 29.85 1011 10 16.09344 0 0
6:35 pm 18:35 Partly Cloudy 73 22.5 61 16 67 67 NNW 15 24 29.85 1011 10 16.09344 0 0
6:55 pm 18:55 Sunny 72 22.3 61 16.1 68 68 NNW 14 22 29.85 1011 10 16.09344 0 0
7:15 pm 19:15 Sunny 71 21.5 61 16 71 71 NNW 13 20 29.85 1011 10 16.09344 0 0
7:35 pm 19:35 Sunny 70 21.2 60 15.3 69 69 NNW 10 17 29.88 1012 10 16.09344 0 0
7:55 pm 19:55 Sunny 69 20.7 60 15.6 73 73 NW 8 13 29.88 1012 10 16.09344 0 0
8:15 pm 20:15 Sunny 69 20.3 59 14.9 71 71 NNW 9 15 29.88 1012 10 16.09344 0 0
8:35 pm 20:35 Sunny 66 18.7 60 15.5 82 82 NNW 5 7 29.88 1012 10 16.09344 0 0
8:55 pm 20:55 Clear 64 17.8 60 15.4 86 86 WNW 5 7 29.91 1013 10 16.09344 0 0
9:15 pm 21:15 Clear 63 17.4 59 15 86 86 WNW 6 9 29.91 1013 10 16.09344 0 0
9:35 pm 21:35 Clear 62 16.7 59 15 90 90 W 5 7 29.91 1013 10 16.09344 0 0
9:55 pm 21:55 Clear 62 16.5 59 15 91 91 WNW 7 11 29.91 1013 10 16.09344 0 0
10:15 pm 22:15 Clear 61 16.3 59 14.8 91 91 WNW 6 9 29.91 1013 10 16.09344 0 0
10:35 pm 22:35 Clear 60 15.7 58 14.5 93 93 WNW 6 9 29.94 1014 10 16.09344 0 0
10:55 pm 22:55 Clear 60 15.5 58 14.2 92 92 W 3 6 29.94 1014 10 16.09344 0 0
11:15 pm 23:15 Clear 60 15.6 58 14.3 92 92 NW 5 7 29.94 1014 10 16.09344 0 0
11:35 pm 23:35 Clear 60 15.5 57 14 91 91 NW 3 6 29.97 1015 10 16.09344 0 0
11:55 pm 23:55 Clear 59 15.2 57 14 93 93 NW 3 6 29.97 1015 10 16.09344 0 0

Powered by AerisWeather